Location: Observatoire
(46.1952°N, 5.3391°E)
Time: 07:04:18
(UTC+01:00)

Altair - Pass Details

Date: 22 February 2026
Orbit: 1502 x 1682 km, 47.2° (Epoch: 5 March)

Event Time Altitude Azimuth Distance (km) Brightness Sun altitude
Rises 10:33:01 0° 292° (WNW) 4,705 9.6 25.6°
Reaches altitude 10° 10:36:14 10° 286° (WNW) 3,742 9.2 26.0°
Maximum altitude 10:44:53 41° 220° (SW) 2,160 8.8 26.9°
Drops below altitude 10° 10:53:49 10° 154° (SSE) 3,861 11.3 27.8°
Sets 10:57:13 0° 148° (SSE) 4,867 11.4 28.1°
